Coronado, California, United States (92118)
Lat: 32.69N, Lon: 117.18W
Wx Zone: CAZ043
Local Info
Past Weather Observations for Today

NOTE: This archive is for the closest National Weather Service station to Coronado. Information may differ from the station used for current weather conditions.

Click here for Long-term Archive

Time Weather Temperature Dewpoint Humidity Pressure Winds Precip Visibility
22:52
Mostly Cloudy
82°F / 28°C 45°F / 7°C 26% 29.86 in
(1011 mb)
Calm - 10SM
21:52
Mostly Cloudy
86°F / 30°C 39°F / 4°C 19% 29.86 in
(1011 mb)
NE 9.2 mph
(NE 15 kph)
- 10SM
20:52
Mostly Cloudy
84°F / 29°C 43°F / 6°C 23% 29.86 in
(1011 mb)
N 5.8 mph
(N 9 kph)
- 10SM
19:52
Mostly Cloudy
82°F / 28°C 45°F / 7°C 26% 29.83 in
(1010 mb)
N 9.2 mph
(N 15 kph)
- 10SM
18:52
Mostly Cloudy
82°F / 28°C 48°F / 9°C 30% 29.83 in
(1010 mb)
NNW 15 mph
(NNW 24 kph)
- 10SM
18:32
Mostly Cloudy
81°F / 27°C 55°F / 13°C 42% 29.83 in
(1010 mb)
NW 16.1 mph
(NW 26 kph)
- 10SM
17:52
Mostly Cloudy
93°F / 34°C 45°F / 7°C 19% 29.83 in
(1010 mb)
ENE 6.9 mph
(ENE 11 kph)
- 10SM
16:52
Mostly Cloudy
97°F / 36°C 43°F / 6°C 16% 29.8 in
(1009 mb)
E 10.4 mph
(E 17 kph)
- 10SM
15:52
Mostly Cloudy
99°F / 37°C 39°F / 4°C 13% 29.83 in
(1010 mb)
ENE 11.5 mph
(ENE 19 kph)
- 10SM
14:52
Mostly Cloudy
99°F / 37°C 39°F / 4°C 13% 29.83 in
(1010 mb)
ENE 12.7 mph
(ENE 20 kph)
- 10SM
13:52
Mostly Cloudy
100°F / 38°C 39°F / 4°C 12% 29.83 in
(1010 mb)
ENE 18.4 mph
(ENE 30 kph)
- 10SM
12:52
Mostly Cloudy
100°F / 38°C 39°F / 4°C 12% 29.86 in
(1011 mb)
E 8.1 mph
(E 13 kph)
- 10SM
11:52
Mostly Cloudy
97°F / 36°C 37°F / 3°C 13% 29.89 in
(1012 mb)
E 15 mph
(E 24 kph)
- 10SM
10:52
Mostly Cloudy
100°F / 38°C 37°F / 3°C 11% 29.89 in
(1012 mb)
E 12.7 mph
(E 20 kph)
- 10SM
09:52
Partly Cloudy
90°F / 32°C 39°F / 4°C 17% 29.92 in
(1013 mb)
Calm - 10SM
08:52
Partly Cloudy
84°F / 29°C 43°F / 6°C 23% 29.92 in
(1013 mb)
NW 4.6 mph
(NW 7 kph)
- 10SM
07:52
Partly Cloudy
75°F / 24°C 46°F / 8°C 36% 29.92 in
(1013 mb)
Calm - 10SM
06:52
Partly Cloudy
68°F / 20°C 48°F / 9°C 49% 29.92 in
(1013 mb)
N 3.5 mph
(N 6 kph)
- 10SM
05:52
Clear
70°F / 21°C 48°F / 9°C 46% 29.89 in
(1012 mb)
Calm - 10SM
04:52
Clear
70°F / 21°C 43°F / 6°C 38% 29.89 in
(1012 mb)
N 5.8 mph
(N 9 kph)
- 10SM
04:36
Clear
70°F / 21°C 45°F / 7°C 40% 29.89 in
(1012 mb)
N 5.8 mph
(N 9 kph)
- 10SM
03:52
Fair
70°F / 21°C 45°F / 7°C 40% 29.89 in
(1012 mb)
N 3.5 mph
(N 6 kph)
- 10SM
02:52
Fair
66°F / 19°C 52°F / 11°C 60% 29.89 in
(1012 mb)
N 4.6 mph
(N 7 kph)
- 10SM
01:52
Fair
68°F / 20°C 55°F / 13°C 64% 29.89 in
(1012 mb)
NNW 4.6 mph
(NNW 7 kph)
- 10SM
00:52
Fair
66°F / 19°C 57°F / 14°C 73% 29.92 in
(1013 mb)
Calm - 8SM
Time Weather Temperature Dewpoint Humidity Pressure Winds Precip Visibility


Weather for websites

WeatherForYou.com, LLC is not responsible for any damages or problems caused by this service. Current weather conditions are obtained from the closest station including government and personal stations which may have varying degrees of accuracy. Weather forecasts are derived from the NOAA NDFD. Like all things, this site belongs to Jesus Christ... He just trusts us to maintain it. If you have any questions or comments email webmaster@weatherforyou.com

Copyright © 2016, WeatherForYou.com LLC. All rights reserved.